Regional Weather Roundup
Issued by NWS Kansas City/Pleasant Hill, MO

Home | Current Version | Previous Version | Text Only | Print | Product List | Glossary On
Versions: 1 2 3 4 5 6 7 8 9 10 11 12 13 14 15 16 17 18 19 20 21 22 23 24 25 26 27
000
ASUS43 KEAX 191410
RWREAX

WEATHER ROUNDUP FOR EASTERN KANSAS AND NORTHWEST MISSOURI
NATIONAL WEATHER SERVICE KANSAS CITY/PLEASANT HILL MO
900 AM CDT WED JUL 19 2017

KSZ040-057-103>105-MOZ028-029-037-043-191500-
...KANSAS CITY METROPOLITAN AREA...

CITY           SKY/WX    TMP DP  RH WIND       PRES   REMARKS
K.C. INTL      CLOUDY    77  72  84 N15       30.17R
K.C. DOWNTOWN  PTSUNNY   84  74  71 CALM      30.12R HX  91
LEES SUMMIT    PTSUNNY   82  73  74 SW6       30.15R
OLATHE - IXD   PTSUNNY   80  73  79 S6        30.14R
OLATHE - OJC   PTSUNNY   79  74  84 S5        30.14R
LAWRENCE       MOSUNNY   82  74  76 VRB3      30.12R

$$

MOZ001>008-011>017-020>025-030>033-038>040-044>046-053-054-191500-
...NORTHERN AND CENTRAL MISSOURI...

CITY           SKY/WX    TMP DP  RH WIND       PRES   REMARKS
ST. JOSEPH     TSTM      74  74 100 E5        30.15F FOG
MOSBY          CLOUDY    77  72  83 N8        30.16R
WARRENSBURG    CLOUDY    73  70  88 CALM      30.14R
WHITEMAN AFB   PTSUNNY   80  78  93 SW7       30.13R
CLINTON        SUNNY     81  72  74 SW6       30.15R
SEDALIA        MOSUNNY   83  75  77 S7        30.16R HX  90
WARSAW         NOT AVBL
CHILLICOTHE      N/A     75  73  93 CALM      30.14S
KIRKSVILLE     CLOUDY    80  72  76 W5        30.13S

$$

MOZ041-047>049-056>058-063>065-088>090-097-191500-
...EASTERN AND SOUTHERN MISSOURI...

CITY           SKY/WX    TMP DP  RH WIND       PRES   REMARKS
ST. LOUIS INTL MOSUNNY   88  74  63 W6        30.13S HX  96
SPIRIT OF STL  SUNNY     85  75  72 W9        30.12S HX  93
COLUMBIA       PTSUNNY   82  71  69 SW3       30.15S
JEFFERSON CITY MOSUNNY   83  76  79 CALM      30.14S HX  91
OSAGE BEACH    SUNNY     79  71  76 VRB5      30.17S
SPRINGFIELD    SUNNY     80  72  76 SW8       30.18R
BRANSON        MOSUNNY   81  72  74 SW3       30.20R
JOPLIN         SUNNY     85  75  72 SW9       30.15S HX  93
WEST PLAINS    MOSUNNY   82  69  64 W7        30.21R

$$

IAZ060-094-KSZ022-034>040-054-083-096-NEZ052-066-093-191500-
...KANSAS...SOUTHEAST NEBRASKA AND IOWA...

CITY           SKY/WX    TMP DP  RH WIND       PRES   REMARKS
TOPEKA         PTSUNNY   82  75  79 SE6       30.11R
MANHATTAN      CLOUDY    86  73  65 SW9       30.07R HX  93
EMPORIA        MOSUNNY   83  73  72 S6        30.11R
CHANUTE        SUNNY     84  73  69 MISG      30.14R HX  90
WICHITA        MOSUNNY   84  72  67 S10       30.11R
OMAHA          MOSUNNY   82  71  69 S21       30.04S
LINCOLN        MOSUNNY   82  72  71 S17       30.03F
FALLS CITY     LGT RAIN  73  73 100 SE9G21    30.11F FOG
LAMONI         CLOUDY    76  71  85 SW3       30.11S
DES MOINES     PTSUNNY   82  71  69 S5        30.07S

$$





USA.gov is the U.S. government's official web portal to all federal, state and local government web resources and services.